Location: Canazei
(46.4667°N, 11.7667°E)
Time: 03:52:20
(UTC+00:00)

Cosmos 1726 - Pass Details

Date: 21 April 2021
Orbit: 481 x 496 km, 82.5° (Epoch: 10 May)

Event Time Altitude Azimuth Distance (km) Brightness Sun altitude
Rises 03:04:44 0° 354° (N) 2,596 6.1 -11.8°
Reaches altitude 10° 03:06:54 10° 359° (N) 1,708 5.2 -11.5°
Maximum altitude 03:10:35 56° 78° (ENE) 597 2.9 -11.0°
Drops below altitude 10° 03:14:14 10° 158° (SSE) 1,691 4.7 -10.4°
Sets 03:16:21 0° 163° (SSE) 2,567 5.6 -10.1°
